Overview Statistics Trail Chart Weather Telemetry Raw packets
 

This is the latest recevied weather packets stored in our database for station/object KB9YVI-11. If no packets are shown the sender has not sent any weather packets the latest 10 day(s).

<< 65 66 67 68 69 70 >>
Time Temp. Humidity Pressure Rain* Wind** Luminosity Snow
1787804242 20° C 100% 0 hPa 0 mm - - -
1787803342 20° C 100% 0 hPa 0 mm - - -
1787803042 20° C 100% 0 hPa 0 mm - - -
1787802742 20° C 100% 0 hPa 0 mm - - -
1787802443 20° C 100% 0 hPa 0 mm - - -
1787801842 20° C 100% 0 hPa 0 mm - - -
1787801542 20° C 100% 0 hPa 0 mm - - -
1787801242 20° C 100% 0 hPa 0 mm - - -
1787800941 20° C 100% 0 hPa 0 mm - - -
1787797644 20° C 100% 0 hPa 0 mm - - -
1787797341 19.44° C 100% 0 hPa 0 mm - - -
1787794644 20° C 100% 0 hPa 3.3 mm - - -
1787794344 20° C 100% 0 hPa 5.08 mm - - -
1787793741 20° C 100% 0 hPa 17.02 mm - - -
1787793444 20° C 100% 0 hPa 19.81 mm - - -
1787792544 20° C 100% 0 hPa 22.86 mm - - -
1787792244 20° C 100% 0 hPa 21.34 mm - - -
1787791944 20° C 100% 0 hPa 20.83 mm - - -
1787791644 20° C 100% 0 hPa 20.83 mm - - -
1787790744 20.56° C 100% 0 hPa 18.03 mm - - -
1787790445 21.11° C 100% 0 hPa 11.68 mm - - -
1787790142 22.22° C 100% 0 hPa 6.1 mm - - -
1787789843 23.89° C 100% 0 hPa 3.3 mm - - -
1787789244 26.67° C 98% 0 hPa 0 mm - - -
1787788043 28.33° C 95% 0 hPa 0 mm - - -

* Rain latest hour (hover to see other rain measurements)
** Current wind speed in m/s (hover to see current wind gust speed)